Home > Weather > Laatzen > Past weeks

Flag for Germany Past Weather in Laatzen, Lower Saxony, Germany — Yesterday and Last 2 Weeks

Now
70 °F

Passing clouds.


Feels Like: 70 °F
Forecast: 54 / 70 °F
Wind: 12 mph from Southwest

Location: Hannover

Current Time: Jun 26, 2016 at 5:40:35 PM

Latest Report: Jun 26, 2016 at 5:20 PM


Visibility: N/A

Pressure: 30.01 "Hg

Humidity: 50%

Dew Point: 50 °F

Location of LaatzenLocation

Past Weather in Laatzen — Graph

°F

Laatzen Temperature Yesterday

Maximum temperature yesterday: 68 °F (at 12:20 AM)
Minimum temperature yesterday: 57 °F (at 9:20 PM)
Average temperature yesterday: 64 °F

High & Low Weather Summary for the Past Weeks

 TemperatureHumidityPressure
High90 °F (Jun 23, 3:20 PM)100% (Jun 13, 1:50 AM)30.24 "Hg (Jun 13, 1:50 AM)
Low50 °F (Jun 19, 11:50 PM)35% (Jun 11, 4:20 PM)29.45 "Hg (Jun 14, 5:50 PM)
Average64 °F80%29.87 "Hg
* Reported Jun 11 4:20 PM — Jun 26 4:20 PM, Laatzen, Weather by CustomWeather, © 2016

Note: Actual official high and low records may vary slightly from our data, if they occured in-between our weather recording intervals... More about our weather records

Advertising

Laatzen Weather History for the Previous 24 Hours

Scroll right to see more
 ConditionsComfort  
Time TempWeatherWind HumidityBarometerVisibility
4:20 PM
Sun, Jun 26
68 °FScattered clouds.13 mph53%30.01 "HgN/A
3:50 PM70 °FScattered clouds.13 mph50%30.01 "HgN/A
3:20 PM68 °FScattered clouds.10 mph56%30.01 "HgN/A
2:50 PM68 °FScattered clouds.13 mph49%30.01 "HgN/A
2:20 PM66 °FScattered clouds.10 mph56%30.01 "HgN/A
1:50 PM68 °FScattered clouds.12 mph53%30.01 "HgN/A
1:20 PM66 °FScattered clouds.10 mph56%30.04 "HgN/A
12:50 PM66 °FScattered clouds.12 mph60%30.04 "HgN/A
12:20 PM64 °FScattered clouds.10 mph68%30.04 "HgN/A
11:50 AM63 °FScattered clouds.10 mph68%30.04 "HgN/A
11:20 AM63 °FScattered clouds.14 mph59%30.04 "HgN/A
10:50 AM63 °FPartly sunny.12 mph64%30.04 "HgN/A
10:20 AM64 °FScattered clouds.12 mph68%30.04 "HgN/A
9:50 AM63 °FScattered clouds.10 mph73%30.01 "HgN/A
9:20 AM61 °FScattered clouds.10 mph77%30.01 "HgN/A
8:50 AM59 °FPartly sunny.12 mph82%30.01 "HgN/A
8:20 AM59 °FScattered clouds.12 mph88%30.01 "HgN/A
7:50 AM59 °FPassing clouds.10 mph88%30.01 "HgN/A
7:20 AM57 °FScattered clouds.10 mph94%30.01 "Hg4 mi
6:50 AM57 °FScattered clouds.10 mph94%30.01 "Hg4 mi
6:20 AM57 °FFog.6 mph94%30.01 "Hg3 mi
5:50 AM57 °FPassing clouds.6 mph94%29.98 "Hg4 mi
5:20 AM55 °FPassing clouds.9 mph100%29.98 "Hg4 mi
4:50 AM57 °FPassing clouds.8 mph94%29.98 "Hg4 mi
4:20 AM55 °FPassing clouds.6 mph100%29.98 "Hg6 mi
3:50 AM54 °FPassing clouds.3 mph100%29.98 "HgN/A
3:20 AM54 °FPassing clouds.6 mph100%29.95 "HgN/A
2:50 AM54 °FPassing clouds.7 mph94%29.95 "HgN/A
2:20 AM54 °FPassing clouds.9 mph100%29.95 "HgN/A
1:50 AM55 °FPassing clouds.12 mph94%29.95 "HgN/A
1:20 AM55 °FPassing clouds.9 mph94%29.95 "HgN/A
12:50 AM55 °FPassing clouds.10 mph100%29.95 "HgN/A
12:20 AM57 °FPassing clouds.12 mph94%29.95 "HgN/A
11:50 PM
Sat, Jun 25
57 °FPassing clouds.10 mph94%29.95 "HgN/A
11:20 PM57 °FLight rain. Passing clouds.12 mph100%29.95 "HgN/A
10:50 PM57 °FPartly cloudy.12 mph100%29.92 "HgN/A
10:20 PM57 °FDrizzle. Partly sunny.15 mph100%29.92 "Hg3 mi
9:50 PM57 °FDrizzle. Partly sunny.15 mph100%29.89 "Hg4 mi
9:20 PM57 °FDrizzle. Partly sunny.17 mph100%29.89 "Hg2 mi
8:50 PM59 °FDrizzle. Broken clouds.17 mph94%29.89 "HgN/A
8:20 PM59 °FDrizzle. Broken clouds.14 mph100%29.89 "HgN/A
7:50 PM63 °FDrizzle. Broken clouds.12 mph94%29.86 "Hg2 mi
7:20 PM63 °FDrizzle. Broken clouds.10 mph100%29.86 "Hg5 mi
6:50 PM64 °FDrizzle. Broken clouds.12 mph94%29.83 "Hg4 mi
6:20 PM63 °FPartly sunny.12 mph100%29.86 "Hg5 mi
5:50 PM64 °FBroken clouds.13 mph94%29.83 "HgN/A
5:20 PM66 °FBroken clouds.13 mph94%29.83 "HgN/A
Weather by CustomWeather, © 2016

See weather overviewHow to use our weather pages